Starlink 2704

operational
NORAD ID: 48643 Int'l Des: 2021-044 Owner: SPXS Country: US Constellation: starlink
LEOCIRCULARSTARLINK_TYPE

关于 Starlink 2704

正在加载描述...

实时位置

正在加载3D地球...

即将过境

高度历史

Altitude vs Time

uPlot chart will show altitude changes over time

两行轨道根数

1 48643U 21044F 25258.22426793 .00001805 00000-0 14002-3 0 9997
2 48643 53.0554 189.3037 0001684 96.3754 263.7427 15.06398897237260
Epoch: Sep 15, 2025 • Age: 20 hours

当前状态

高度 551.6 km
速度 7.59 km/s
星下点 -15.58°S, 1.77°E
发射日期 May 26, 2021
运行时间 4.3 years
类型 internet

技术详情

分类 Payload
质量 260.00 kg
干质量 248.00 kg
总质量 260.00 kg
长度 0.20 m
直径 2.80 m
跨度 9.00 m
形状 Box + pan
制造商 SPXS
平台类型 Starlink
阶段状态 In Orbit
所有者/国家 SPXS/US

大型星座

Loading constellations...